CAPE
0 0 0 0 1 3 13 8 9 4 0 3 2 0 0 0 0 1 10 4 11 7 5 8 9 7 8 9 8 5 140 62 13 0 70 75 145 126 114 88 62 35 23
0 0 1 3 19 33 25 28 23 18 4 14 7 5 1 0 1 2 5 8 5 10 4 6 8 5 9 6 5 8 88 60 12 3 0 7 34 65 68 108 67 44 22
0 0 5 20 36 53 50 37 49 46 37 21 21 14 3 1 1 2 2 9 5 11 8 7 10 5 8 9 10 13 6 90 5 8 0 1 17 40 44 44 70 64 30
0 0 1 8 25 36 43 37 54 59 58 38 35 25 9 4 4 8 6 10 11 8 14 14 13 8 7 11 6 16 7 8 14 7 0 1 3 16 34 34 36 43 23
0 0 0 1 7 18 31 37 53 66 58 49 47 34 18 11 11 15 17 15 15 10 14 11 15 10 12 7 6 6 5 5 107 69 7 10 0 29 19 29 31 20 25
0 0 0 0 1 10 26 44 59 71 57 56 48 38 24 15 24 27 27 17 20 16 16 16 19 12 10 6 6 3 7 8 10 50 4 9 13 26 5 140 87 26 36
0 0 0 0 0 7 29 47 61 62 59 65 52 39 30 23 29 32 35 31 29 20 21 34 23 6 12 6 6 5 5 5 5 65 64 53 35 8 50 80 208 105 83
0 0 0 0 0 5 21 60 72 56 46 54 51 44 34 32 34 27 11 24 29 10 35 29 17 6 7 4 6 5 4 5 5 3 71 34 44 31 43 61 132 50 3
0 0 0 0 0 3 15 42 44 41 33 49 52 41 36 33 37 25 26 19 11 39 32 20 17 7 7 4 6 4 3 3 7 5 3 71 75 80 49 9 58 204 5
0 0 0 0 0 1 10 23 23 30 35 43 39 27 29 31 40 36 17 42 39 26 33 21 13 4 9 8 5 6 4 3 6 3 1 34 92 98 47 49 22 47 87
0 0 0 0 0 1 5 7 11 16 23 26 26 36 39 38 35 46 37 19 31 7 34 27 15 5 8 9 11 5 5 3 7 4 3 3 3 91 199 101 109 76 65
0 0 0 0 0 0 0 0 7 8 5 11 22 24 27 38 47 39 44 33 28 16 21 22 18 13 8 9 6 7 8 7 7 4 1 2 5 2 6 196 161 266 257
0 0 0 0 0 0 0 0 2 3 1 7 14 20 20 38 31 45 56 32 21 27 16 16 14 8 8 9 7 10 6 6 8 7 5 3 5 2 7 2 3 168 218
0 0 0 0 0 0 0 0 0 0 3 7 14 20 24 19 27 12 42 43 23 23 15 15 14 9 7 8 7 10 8 7 4 7 8 6 4 3 4 4 4 4 99
0 0 0 0 0 0 0 0 0 0 0 2 7 16 18 33 28 34 36 35 11 21 9 11 14 17 4 2 6 10 7 4 5 3 1 2 3 1 1 5 5 3 3
0 0 0 0 0 0 0 0 0 0 0 0 1 5 12 17 29 14 18 15 17 8 9 5 10 12 3 0 0 0 11 7 4 3 2 0 1 0 0 0 0 0 3
0 0 0 0 0 0 0 0 0 0 0 0 0 0 7 20 6 11 15 8 6 4 6 5 4 8 4 0 0 0 9 8 6 4 3 1 0 2 1 0 0 0 0
0 0 0 0 0 0 0 0 0 0 0 0 0 0 2 13 8 17 13 8 3 0 1 3 4 5 0 0 0 0 6 6 7 5 3 3 1 0 1 2 3 4 3
0 0 0 0 0 0 0 0 0 0 0 0 0 0 2 14 12 11 10 7 1 0 0 0 1 2 5 0 0 0 9 7 5 2 1 1 0 0 0 3 2 1 3
0 0 0 0 0 0 0 0 0 0 0 0 0 0 2 9 11 7 3 1 0 0 0 0 0 0 2 0 0 0 1 4 2 2 0 0 0 0 0 1 1 1 1
0 0 0 0 0 0 0 0 0 0 0 0 0 0 0 13 10 6 3 0 0 0 0 0 0 0 0 0 0 0 0 0 0 0 0 0 0 0 0 0 0 1 1
0 0 0 0 0 0 0 0 0 0 0 0 0 0 0 3 3 8 2 0 0 0 0 0 0 0 0 0 0 0 0 0 0 0 0 0 0 0 0 0 0 0 0
0 0 0 0 0 0 0 0 0 0 0 0 0 0 0 1 6 10 8 1 0 0 0 0 0 0 0 0 0 0 0 0 0 0 0 0 0 0 0 0 0 0 0
0 0 0 0 0 0 0 0 0 0 0 0 0 0 0 2 9 3 2 3 1 0 0 0 0 0 0 0 0 0 0 0 0 0 0 0 0 0 0 0 0 0 0
0 0 0 0 0 0 0 0 0 0 0 0 0 0 0 0 2 4 3 1 3 1 0 0 0 0 0 0 0 0 0 0 0 0 0 0 0 0 0 0 0 0 0
0 0 0 0 0 0 0 0 0 0 0 0 0 0 0 0 1 2 3 0 0 0 0 0 0 0 0 0 0 0 0 0 0 0 0 0 0 0 0 0 0 0 0
CIN
-0 -0 -0 -0 -8 -4 -0 -9 -0 -11 -0 -0 -0 -0 -0 -0 -0 -0 -0 -0 -0 -0 -0 -0 -0 -0 -0 -0 -0 -0 -0 -7 -0 -0 -11 -31 -1 -0 -0 -0 -0 -0 -0
-0 -0 -0 -0 -0 -0 -1 -0 -0 -0 -0 -0 -0 -0 -0 -0 -0 -0 -0 -0 -0 -0 -0 -0 -0 -0 -0 -0 -0 -0 -1 -1 -1 -0 -0 -9 -0 -11 -0 -0 -0 -0 -0
-0 -0 -0 -0 -0 -0 -0 -0 -0 -0 -0 -0 -0 -0 -0 -0 -0 -0 -0 -0 -0 -0 -0 -0 -0 -0 -0 -0 -0 -0 -0 -0 -0 -7 -0 -0 -0 -0 -0 -0 -0 -0 -0
-0 -0 -0 -0 -0 -0 -0 -0 -0 -0 -0 -0 -0 -0 -0 -0 -0 -0 -0 -0 -0 -0 -0 -0 -0 -0 -0 -0 -0 -0 -0 -0 -18 -5 -0 -8 -21 -2 -0 -0 -0 -0 -0
-0 -0 -0 -0 -0 -0 -0 -0 -0 -0 -0 -0 -0 -0 -0 -0 -0 -0 -0 -0 -0 -0 -0 -0 -0 -0 -0 -0 -0 -0 -0 -0 -0 -0 -0 -0 -0 -15 -15 -19 -0 -2 -0
-0 -0 -0 -0 -0 -0 -0 -0 -0 -0 -0 -0 -0 -0 -0 -0 -0 -0 -0 -0 -0 -0 -0 -0 -0 -0 -0 -0 -0 -0 -0 -0 -0 -1 -0 -1 -0 -0 -8 -0 -0 -0 -2
-0 -0 -0 -0 -0 -0 -0 -0 -0 -0 -0 -0 -0 -0 -0 -0 -0 -0 -0 -0 -0 -0 -0 -0 -0 -0 -0 -0 -0 -0 -0 -0 -0 -3 -0 -0 -3 -12 -2 -8 -0 -0 -0
-0 -0 -0 -0 -0 -0 -0 -0 -0 -0 -0 -0 -0 -0 -0 -0 -0 -0 -1 -0 -0 -0 -0 -0 -0 -0 -0 -0 -0 -0 -0 -0 -0 -0 -0 -0 -0 -4 -19 -11 -0 -0 -0
-0 -0 -0 -0 -0 -0 -0 -0 -0 -0 -0 -0 -0 -0 -0 -0 -0 -0 -0 -0 -0 -0 -0 -0 -0 -0 -0 -0 -0 -0 -0 -0 -0 -0 -7 -0 -2 -7 -11 -19 -13 -0 -4
-0 -0 -0 -0 -0 -0 -0 -0 -0 -0 -0 -0 -0 -0 -0 -0 -0 -0 -0 -0 -0 -0 -0 -0 -0 -0 -0 -0 -0 -0 -0 -0 -0 -0 -0 -17 -1 -4 -4 -0 -1 -13 -8
-0 -0 -0 -0 -0 -0 -0 -0 -0 -0 -0 -0 -0 -0 -0 -0 -0 -0 -0 -0 -0 -2 -0 -0 -0 -0 -0 -0 -0 -0 -0 -0 -0 -0 -0 -0 -0 -0 -0 -0 -0 -0 -5
-0 -0 -0 -0 -0 -0 -0 -0 -0 -0 -0 -0 -0 -0 -0 -0 -0 -0 -0 -0 -0 -0 -0 -0 -0 -0 -0 -0 -0 -0 -0 -0 -0 -0 -0 -0 -0 -0 -1 -0 -0 -0 -0
-0 -0 -0 -0 -0 -0 -0 -0 -0 -0 -0 -0 -0 -0 -0 -0 -0 -0 -0 -0 -0 -0 -0 -0 -0 -0 -0 -0 -0 -0 -0 -0 -0 -0 -0 -0 -0 -0 -0 -0 -0 -1 -0
-0 -0 -0 -0 -0 -0 -0 -0 -0 -0 -0 -0 -0 -0 -0 -0 -0 -0 -0 -0 -0 -0 -0 -0 -0 -0 -0 -0 -0 -0 -0 -0 -0 -0 -0 -0 -0 -0 -0 -0 -0 -0 -37
-0 -0 -0 -0 -0 -0 -0 -0 -0 -0 -0 -0 -0 -0 -0 -0 -0 -0 -0 -0 -0 -0 -0 -0 -0 -0 -0 -0 -0 -0 -0 -0 -0 -0 -0 -0 -0 -0 -0 -0 -0 -0 -0
-0 -0 -0 -0 -0 -0 -0 -0 -0 -0 -0 -0 -0 -0 -0 -0 -0 -0 -0 -0 -0 -0 -0 -0 -0 -0 -0 -0 -0 -0 -0 -0 -0 -0 -0 -0 -0 -0 -0 -0 -0 -0 -0
-0 -0 -0 -0 -0 -0 -0 -0 -0 -0 -0 -0 -0 -0 -0 -0 -0 -0 -0 -0 -0 -0 -0 -0 -0 -0 -0 -0 -0 -0 -0 -0 -0 -0 -0 -0 -0 -0 -0 -0 -0 -0 -0
-0 -0 -0 -0 -0 -0 -0 -0 -0 -0 -0 -0 -0 -0 -0 -0 -0 -0 -0 -0 -0 -0 -0 -0 -0 -0 -0 -0 -0 -0 -0 -0 -0 -0 -0 -0 -0 -0 -0 -0 -0 -0 -0
-0 -0 -0 -0 -0 -0 -0 -0 -0 -0 -0 -0 -0 -0 -0 -0 -0 -0 -0 -0 -0 -0 -0 -0 -0 -0 -0 -0 -0 -0 -0 -0 -0 -0 -0 -0 -0 -0 -0 -0 -0 -0 -0
-0 -0 -0 -0 -0 -0 -0 -0 -0 -0 -0 -0 -0 -0 -0 -0 -0 -0 -0 -0 -0 -0 -0 -0 -0 -0 -0 -0 -0 -0 -0 -0 -0 -0 -0 -0 -0 -0 -0 -0 -0 -0 -0
-0 -0 -0 -0 -0 -0 -0 -0 -0 -0 -0 -0 -0 -0 -0 -0 -0 -0 -0 -0 -0 -0 -0 -0 -0 -0 -0 -0 -0 -0 -0 -0 -0 -0 -0 -0 -0 -0 -0 -0 -0 -0 -0
-0 -0 -0 -0 -0 -0 -0 -0 -0 -0 -0 -0 -0 -0 -0 -0 -0 -0 -0 -0 -0 -0 -0 -0 -0 -0 -0 -0 -0 -0 -0 -0 -0 -0 -0 -0 -0 -0 -0 -0 -0 -0 -0
-0 -0 -0 -0 -0 -0 -0 -0 -0 -0 -0 -0 -0 -0 -0 -0 -0 -0 -0 -0 -0 -0 -0 -0 -0 -0 -0 -0 -0 -0 -0 -0 -0 -0 -0 -0 -0 -0 -0 -0 -0 -0 -0
-0 -0 -0 -0 -0 -0 -0 -0 -0 -0 -0 -0 -0 -0 -0 -0 -0 -0 -0 -0 -0 -0 -0 -0 -0 -0 -0 -0 -0 -0 -0 -0 -0 -0 -0 -0 -0 -0 -0 -0 -0 -0 -0
-0 -0 -0 -0 -0 -0 -0 -0 -0 -0 -0 -0 -0 -0 -0 -0 -0 -0 -0 -0 -0 -0 -0 -0 -0 -0 -0 -0 -0 -0 -0 -0 -0 -0 -0 -0 -0 -0 -0 -0 -0 -0 -0
-0 -0 -0 -0 -0 -0 -0 -0 -0 -0 -0 -0 -0 -0 -0 -0 -0 -0 -0 -0 -0 -0 -0 -0 -0 -0 -0 -0 -0 -0 -0 -0 -0 -0 -0 -0 -0 -0 -0 -0 -0 -0 -0
Wind_Speed
13 12 10 10 10 10 7 10 11 12 12 11 11 11 11 10 9 8 12 11 11 13 11 7 9 9 8 10 10 6 14 9 10 7 3 4 7 8 9 8 9 10 9
15 12 12 12 11 9 8 9 11 12 11 10 10 10 11 10 9 9 10 10 12 11 11 10 9 10 9 10 10 7 2 6 11 7 7 4 2 5 5 7 9 10 9
17 16 13 11 12 9 8 8 10 11 11 12 9 9 10 9 8 10 9 11 11 11 11 10 9 8 8 7 8 9 7 2 7 10 5 4 5 8 7 8 9 9 9
15 13 11 12 12 8 7 8 10 11 10 11 10 12 10 11 9 10 9 10 10 11 10 11 10 8 7 8 7 9 7 6 8 6 4 7 4 7 7 9 10 9 11
12 11 12 11 11 8 5 7 8 11 10 9 9 10 12 11 10 9 12 10 10 8 11 10 10 8 7 8 9 10 9 7 7 8 8 7 2 5 4 10 11 10 11
11 11 9 7 9 8 6 7 8 10 9 9 9 11 13 13 11 11 9 9 8 8 11 11 9 9 9 10 8 9 10 9 9 8 10 8 7 10 6 8 13 14 12
11 11 10 9 8 8 7 6 9 9 9 8 9 11 12 13 11 11 10 12 9 8 9 11 8 8 9 9 10 8 9 8 9 9 8 5 4 4 6 7 8 6 6
10 10 8 8 8 6 6 8 9 8 9 8 10 11 11 8 8 9 10 8 8 8 11 9 9 9 10 9 10 6 7 9 7 5 6 4 6 5 4 5 9 9 3
9 8 8 7 7 7 6 7 8 9 7 9 10 11 9 9 9 9 8 8 8 8 9 9 10 11 11 10 11 6 8 9 8 5 1 3 5 6 7 3 4 9 5
7 6 6 6 5 4 6 4 5 7 8 9 10 9 9 8 9 9 10 9 9 9 9 9 9 11 11 10 9 8 7 8 7 4 7 5 6 6 5 5 3 1 3
7 6 5 4 5 4 4 3 4 6 7 9 8 8 7 7 7 7 8 8 8 9 10 11 10 10 12 13 11 10 10 10 8 6 9 9 7 4 7 7 6 5 3
7 6 4 4 4 4 4 4 4 5 7 6 6 6 7 9 9 8 7 6 7 8 10 10 10 11 12 11 11 10 8 9 10 11 11 12 8 7 7 4 8 8 9
5 5 4 3 3 4 4 4 5 7 5 5 5 5 5 7 8 9 9 6 9 10 11 11 10 10 10 12 10 10 10 9 10 11 11 10 9 9 7 6 5 6 6
5 6 5 3 3 4 4 3 3 6 5 5 6 6 6 6 6 7 9 9 10 11 11 11 11 10 11 12 12 10 10 10 10 11 10 10 8 8 9 6 6 5 4
4 5 5 5 4 3 4 3 2 3 4 6 6 6 6 5 5 6 6 9 9 10 10 10 10 10 11 11 13 10 9 9 9 9 9 10 13 17 8 5 4 5 3
5 4 3 4 5 5 5 3 3 1 3 5 6 6 6 5 5 6 6 6 8 9 9 10 10 11 9 18 16 12 8 10 11 9 10 9 12 11 13 5 11 10 5
5 5 4 4 5 5 6 6 4 1 3 4 5 6 6 5 4 4 5 7 7 8 8 9 9 9 12 17 16 14 8 9 10 10 9 9 9 12 8 7 5 9 13
6 6 5 5 6 6 6 4 4 4 4 5 5 5 5 5 2 3 5 5 6 6 6 7 9 8 10 18 17 18 7 7 9 11 11 10 11 14 12 5 6 9 12
7 6 5 5 6 7 7 7 7 6 6 6 5 5 5 5 2 2 4 5 5 5 5 6 7 9 9 16 17 17 5 5 7 8 14 13 12 18 17 5 5 7 9
7 7 7 7 7 7 8 8 8 7 6 5 5 6 5 4 3 3 3 3 4 4 3 4 5 5 7 14 16 16 5 6 4 6 8 19 15 17 19 9 5 7 8
10 9 8 8 8 8 8 9 9 8 6 6 6 6 6 6 4 3 3 3 2 2 3 3 3 4 7 9 12 16 5 5 4 5 6 8 17 18 17 13 9 7 4
10 11 9 9 9 8 9 10 10 8 7 7 7 7 7 6 4 6 4 3 4 3 2 3 2 2 3 7 9 9 10 13 4 5 5 7 10 13 16 11 13 9 1
10 10 10 10 9 10 11 11 9 8 7 8 9 8 7 7 6 7 6 5 5 4 3 3 2 1 1 3 7 6 4 8 4 6 6 3 5 4 6 8 10 5 5
12 11 11 11 11 11 12 12 10 9 9 10 10 9 8 9 9 7 6 6 5 5 4 4 3 2 2 1 2 1 5 7 7 9 3 2 2 1 3 4 5 6 6
12 12 12 12 12 12 12 12 12 11 11 11 10 10 9 10 10 9 7 7 7 4 4 4 4 3 3 3 5 6 4 5 5 5 1 1 1 2 3 4 5 5 5
12 12 13 13 13 13 13 13 13 13 13 12 10 9 9 9 10 9 9 7 3 6 6 5 6 3 5 6 3 2 2 2 4 5 1 1 1 2 2 3 4 4 4
Wind_Direction
280 282 274 274 276 289 327 337 351 353 346 346 346 344 339 337 335 343 343 357 344 353 342 343 339 340 327 320 311 293 197 176 179 153 160 200 241 206 204 189 196 177 184
284 271 263 273 275 288 310 325 344 345 340 344 337 340 333 329 328 335 336 352 350 346 345 345 334 336 324 327 332 326 200 211 167 167 149 146 180 215 214 199 200 182 182
292 293 287 267 278 283 297 324 332 334 333 341 332 342 328 332 337 336 339 342 354 348 354 339 323 332 330 323 330 314 329 188 166 171 162 137 199 169 187 204 207 174 199
317 305 285 289 284 279 311 319 327 329 329 332 335 343 336 334 333 330 339 332 350 352 355 347 319 340 333 316 330 319 313 302 183 179 170 196 150 179 171 197 209 200 202
326 316 314 312 303 284 289 310 314 318 334 331 337 336 340 332 328 329 330 341 341 358 358 349 328 360 319 333 333 326 329 301 220 190 171 175 165 158 157 180 190 207 206
326 325 324 311 284 288 295 308 314 314 333 332 336 336 334 330 330 335 330 343 342 8 355 347 348 344 327 342 337 325 326 312 289 176 173 172 173 179 174 220 195 196 201
333 335 327 313 311 306 309 310 317 318 326 326 333 330 332 323 324 337 338 332 347 355 347 347 345 346 330 324 352 331 320 336 315 183 177 171 166 141 182 222 179 193 202
342 335 339 325 321 316 317 320 322 321 330 331 326 327 333 328 323 353 325 337 353 325 347 348 343 344 325 345 335 332 335 329 317 279 179 187 187 157 179 190 176 177 164
345 338 343 347 329 325 323 349 328 323 332 331 324 328 329 332 330 335 326 356 328 345 355 355 345 346 346 353 330 318 1 323 317 333 42 220 192 184 185 183 192 198 164
345 346 338 345 335 329 329 353 330 330 334 335 334 332 326 330 331 343 359 340 353 355 340 357 356 353 357 349 336 344 331 350 330 357 20 281 226 198 173 177 186 161 134
336 340 339 352 331 321 327 346 335 337 344 342 336 334 333 335 341 340 1 352 352 355 351 1 2 2 4 357 353 350 349 1 315 36 34 9 4 248 200 179 187 178 170
325 329 333 341 330 335 338 355 342 343 352 349 357 4 350 348 0 355 11 16 355 7 352 11 13 15 10 2 350 356 2 12 358 19 58 16 346 24 353 220 206 200 191
317 317 287 257 328 320 336 340 345 352 360 2 3 14 0 13 355 2 20 351 0 8 11 14 22 18 17 11 3 4 8 19 13 31 45 40 359 20 352 353 340 230 196
315 318 299 282 266 303 313 318 351 359 347 350 352 14 20 51 3 1 354 8 6 11 12 10 19 17 20 14 12 16 15 18 34 24 34 34 19 21 352 355 350 333 262
287 295 297 305 261 254 246 263 327 6 340 337 353 4 3 24 9 22 5 23 359 7 10 10 16 20 29 14 3 10 18 26 34 32 28 28 16 30 324 328 339 339 309
264 272 280 282 261 241 238 225 252 335 313 331 340 349 348 13 354 21 18 15 7 9 13 16 13 22 34 357 357 349 21 31 29 21 25 19 18 3 7 29 55 52 4
243 247 258 254 242 220 208 229 211 247 287 310 334 334 342 21 335 4 3 11 11 4 8 16 11 17 27 7 356 340 27 34 32 23 20 22 13 4 347 31 52 54 45
235 231 238 221 210 205 197 209 220 245 268 279 309 316 326 346 340 347 7 4 8 9 16 17 12 14 34 7 358 338 33 38 38 35 17 21 18 4 350 33 56 50 52
221 228 222 217 200 203 200 209 209 230 253 266 290 306 305 323 302 348 359 356 356 19 21 31 25 6 37 11 359 338 51 56 52 51 42 20 23 9 355 53 79 65 51
209 208 211 208 217 206 207 219 224 224 241 248 272 291 273 277 291 317 346 358 350 7 10 37 38 65 25 34 6 349 9 32 42 51 50 43 27 23 11 43 37 61 42
199 202 207 217 220 210 210 221 223 233 238 226 235 269 268 268 273 270 297 313 337 328 341 352 52 54 43 65 28 6 17 18 32 33 39 42 30 29 32 26 38 33 15
203 201 212 218 217 213 217 225 227 226 228 227 231 245 237 243 248 258 244 258 284 269 273 305 300 74 73 35 59 37 21 342 47 45 51 55 18 43 34 35 2 348 306
207 207 214 221 219 214 218 228 229 224 221 232 235 239 237 234 231 251 251 249 249 272 274 264 277 345 350 118 127 97 37 29 50 46 52 21 346 287 82 31 351 1 46
216 209 215 223 225 216 219 228 224 214 220 225 231 238 240 233 220 224 237 247 247 253 254 255 266 258 245 314 360 139 165 172 183 170 111 41 325 15 353 22 42 46 36
213 212 215 222 228 219 221 220 224 220 222 226 227 231 233 225 237 227 234 231 234 260 254 253 255 258 264 72 27 350 344 355 49 294 218 120 60 70 56 62 38 37 34
211 212 217 221 225 221 218 221 216 217 222 225 227 227 229 229 229 232 220 198 263 177 223 279 297 185 78 126 167 131 66 16 308 241 233 67 33 46 53 60 63 55 51